FLOCK 3K-4 (43893 NORAD) Tracking and Keplerian Element Data

This shows tracking and keplerian element data for the satellite.

Feedback or suggestion? Click here.




ElementValue
Catalog43893
NameFLOCK 3K-4
Epoch Orbit458
Epoch Day26.16617421
Epoch Year2019
RAAN295.2438
Inclination97.2998
Eccentricity0.0025583
Argument of Perigee139.6748
Mean Anonmoly220.6393
Mean Motion15.23408269
Decay Rate8.2E-06
L11 43893U 18111T 19026.16617421 .00000820 00000-0 37105-4 0 9995
L22 43893 97.2998 295.2438 0025583 139.6748 220.6393 15.23408269 4589

Live tracking and technical data element details for FLOCK 3K-4 (NORAD 43893). FLOCK 3K-4 can be tracked NOW for your location showing map with azimuth and elevation plus other details from your city location.

Track the satellite on the map from your city or location and see movement details for azimuth, elevation, latitude, longitude, range, height, and movement on the map or in text.







IsCatalogInMostPopularTable: catalog: 43893, numindb: 110
Update: records affected: 1



GetName: 43893 FLOCK 3K-4

Hit Count: updated at: Wed, 17 Jul 2019 08:19:50 GMT